Location: Seven Kings
(51.5667°N, 0.1000°E)
Time: 12:04:33
(UTC+00:00)

Cosmos 1300 - Pass Details

Date: 29 October 2020
Orbit: 511 x 513 km, 82.5° (Epoch: 24 November)

Event Time Altitude Azimuth Distance (km) Brightness Sun altitude
Rises 17:05:49 0° 169° (S) 2,619 6.3 -5.1°
Reaches altitude 10° 17:08:01 10° 161° (SSE) 1,738 5.3 -5.4°
Maximum altitude 17:11:33 38° 93° (E) 808 3.2 -5.9°
Drops below altitude 10° 17:15:07 10° 25° (NNE) 1,752 5.0 -6.5°
Sets 17:17:21 0° 17° (NNE) 2,644 6.0 -6.8°
